sat.trackr.live / text

‹ back to catalog

QPS-SAR-8 (AMATERU-IV)

NORAD 60542 · 2024-149CC

PAYLOAD ACTIVE UNKNOWN

§ Identity

Operator
Country
JPN
Launch date
2024-08-16
Launch site
AFWTR
Launch vehicle
Mass (kg)
RCS (m²)

External: N2YO · Heavens-Above · Gunter

§ Orbital elements

Epoch: 2026-05-25T04:10:41.936736Z

Period
95.75 min
Inclination
97.6654°
Eccentricity
0.0003558
Mean motion
15.03852107 rev/d
Perigee alt
552.6 km
Apogee alt
557.5 km
Semi-major
6,933.2 km
B*
4.3503e-4
RAAN
224.5206°
Arg perigee
173.3284°
Mean anomaly
186.7990°
Rev number
9,681

§ Raw data

QPS-SAR-8 (AMATERU-IV)1 60542U 24149CC  26145.17409649  .00005928  00000+0  43503-3 0  99962 60542  97.6654 224.5206 0003558 173.3284 186.7990 15.03852107 96812

JSON: /api/v1/satellites/60542 · /tle

For live sub-satellite position, see the globe view (requires WebGL).

§ Visibility from observer

Set your observer location to see the next 7 days of passes ≥ 10°. The values pass through the URL so the page stays shareable.

No JS? Fill the form by hand. The geolocation button needs JavaScript.